TimeCET,TemperatureF,Dew PointF,Humidity,Sea Level PressureIn,VisibilityMPH,Wind Direction,Wind SpeedMPH,Gust SpeedMPH,PrecipitationIn,Events,Conditions,WindDirDegrees,DateUTC
12:00 AM,44.6,39.2,81,29.86,6.2,Calm,Calm,-,N/A,,Mostly Cloudy,0,2012-11-26 23:00:00
5:30 AM,41.0,37.4,87,29.80,6.2,Calm,Calm,-,N/A,,Mostly Cloudy,0,2012-11-27 04:30:00
6:00 AM,42.8,39.2,87,29.80,6.2,Calm,Calm,-,N/A,,Mostly Cloudy,0,2012-11-27 05:00:00
6:30 AM,42.8,39.2,87,29.80,6.2,Calm,Calm,-,N/A,,Mostly Cloudy,0,2012-11-27 05:30:00
7:00 AM,41.0,39.2,93,29.80,6.2,NNW,4.6,-,N/A,,Mostly Cloudy,330,2012-11-27 06:00:00
7:30 AM,42.8,39.2,87,29.80,6.2,North,6.9,-,N/A,,Mostly Cloudy,350,2012-11-27 06:30:00
8:00 AM,42.8,39.2,87,29.80,6.2,North,6.9,-,N/A,,Mostly Cloudy,360,2012-11-27 07:00:00
8:30 AM,42.8,37.4,81,29.80,6.2,North,6.9,-,N/A,,Mostly Cloudy,350,2012-11-27 07:30:00
9:00 AM,41.0,37.4,87,29.80,6.2,NNW,5.8,-,N/A,,Mostly Cloudy,330,2012-11-27 08:00:00
9:30 AM,42.8,37.4,81,29.80,6.2,North,5.8,-,N/A,,Mostly Cloudy,350,2012-11-27 08:30:00
10:00 AM,42.8,39.2,87,29.80,6.2,NNW,6.9,-,N/A,,Mostly Cloudy,340,2012-11-27 09:00:00
10:30 AM,42.8,37.4,81,29.80,6.2,North,6.9,-,N/A,,Mostly Cloudy,350,2012-11-27 09:30:00
11:00 AM,44.6,37.4,76,29.77,6.2,NNW,9.2,-,N/A,,Mostly Cloudy,340,2012-11-27 10:00:00
11:30 AM,44.6,37.4,76,29.77,6.2,NNW,10.4,-,N/A,,Mostly Cloudy,330,2012-11-27 10:30:00
12:00 PM,46.4,39.2,76,29.77,6.2,NNW,10.4,-,N/A,,Mostly Cloudy,340,2012-11-27 11:00:00
12:30 PM,44.6,39.2,81,29.77,6.2,NW,10.4,-,N/A,,Mostly Cloudy,320,2012-11-27 11:30:00
1:00 PM,44.6,37.4,76,29.74,6.2,NNW,10.4,-,N/A,,Mostly Cloudy,330,2012-11-27 12:00:00
1:30 PM,46.4,39.2,76,29.74,6.2,NW,10.4,-,N/A,,Mostly Cloudy,320,2012-11-27 12:30:00
2:00 PM,48.2,39.2,71,29.71,6.2,NNW,13.8,-,N/A,,Mostly Cloudy,330,2012-11-27 13:00:00
2:30 PM,44.6,39.2,81,29.71,6.2,NNW,10.4,-,N/A,Rain,Light Rain Showers,330,2012-11-27 13:30:00
3:00 PM,44.6,37.4,76,29.71,6.2,NW,11.5,-,N/A,Rain,Light Rain Showers,320,2012-11-27 14:00:00
3:30 PM,44.6,37.4,76,29.71,6.2,NW,9.2,-,N/A,,Mostly Cloudy,320,2012-11-27 14:30:00
4:00 PM,42.8,37.4,81,29.71,6.2,NW,12.7,-,N/A,Rain,Light Rain,320,2012-11-27 15:00:00
4:30 PM,42.8,37.4,81,29.71,6.2,NW,10.4,-,N/A,Rain,Light Rain,320,2012-11-27 15:30:00
5:00 PM,42.8,37.4,81,29.71,6.2,NNW,6.9,-,N/A,Rain,Light Rain,330,2012-11-27 16:00:00
5:30 PM,41.0,37.4,87,29.71,6.2,NNW,9.2,-,N/A,Rain,Light Rain,330,2012-11-27 16:30:00
6:00 PM,41.0,37.4,87,29.71,6.2,North,9.2,-,N/A,Rain,Light Rain,350,2012-11-27 17:00:00
6:30 PM,41.0,37.4,87,29.71,6.2,NW,8.1,-,N/A,,Mostly Cloudy,320,2012-11-27 17:30:00
7:00 PM,41.0,37.4,87,29.71,6.2,NNW,9.2,-,N/A,,Mostly Cloudy,330,2012-11-27 18:00:00
7:30 PM,41.0,37.4,87,29.71,6.2,NNW,11.5,-,N/A,,Mostly Cloudy,330,2012-11-27 18:30:00
8:00 PM,41.0,37.4,87,29.71,6.2,NNW,8.1,-,N/A,,Mostly Cloudy,340,2012-11-27 19:00:00
8:30 PM,41.0,37.4,87,29.71,6.2,North,8.1,-,N/A,Rain,Light Rain,350,2012-11-27 19:30:00
9:00 PM,41.0,37.4,87,29.71,6.2,North,6.9,-,N/A,,Mostly Cloudy,360,2012-11-27 20:00:00
9:30 PM,39.2,37.4,93,29.71,6.2,Variable,2.3,-,N/A,,Mostly Cloudy,0,2012-11-27 20:30:00
10:00 PM,41.0,37.4,87,29.71,6.2,North,4.6,-,N/A,,Mostly Cloudy,360,2012-11-27 21:00:00
11:00 PM,39.2,37.4,93,29.74,6.2,NNE,6.9,-,N/A,Rain,Rain,30,2012-11-27 22:00:00
11:30 PM,39.2,37.4,93,29.71,6.2,North,3.5,-,N/A,Rain,Rain,10,2012-11-27 22:30:00